Location: Boulder, CO
(40.0083°N, 105.2472°W)
Time: 13:46:27
(UTC-06:00)

SORCE - Visible Passes

Search period start: 29 April 2016 00:00
Search period end: 09 May 2016 00:00
Orbit: 587 x 619 km, 40.0° (Epoch: 28 April)

Date Brightness Start Highest point End Pass type
(mag) Time Alt. Az. Time Alt. Az. Time Alt. Az.
29 Apr 5.9 21:48:38 10° WSW 21:53:12 71° SSE 21:54:15 50° ESE visible
29 Apr 8.7 23:30:33 10° W 23:31:01 13° W 23:31:01 13° W visible
30 Apr 6.6 20:18:28 10° SW 20:22:45 40° SSE 20:27:02 10° E visible
30 Apr 5.9 21:59:54 10° W 22:04:30 85° S 22:05:22 58° E visible
30 Apr 8.8 23:41:53 10° W 23:42:06 11° W 23:42:06 11° W visible
01 May 6.2 20:29:28 10° WSW 20:33:57 57° SSE 20:38:26 10° E visible
01 May 5.9 22:11:14 10° W 22:15:50 89° N 22:16:18 72° E visible
02 May 6.0 20:40:38 10° WSW 20:45:13 75° SSE 20:49:47 10° E visible
02 May 5.9 22:22:34 10° W 22:27:06 87° WSW 22:27:06 87° WSW visible
03 May 6.0 20:51:56 10° W 20:56:31 87° S 21:01:05 10° E visible
03 May 6.3 22:33:54 10° W 22:37:48 62° WSW 22:37:48 62° WSW visible
04 May 6.0 21:03:15 10° W 21:07:52 88° N 21:11:44 14° E visible
04 May 6.9 22:45:14 10° W 22:48:26 42° WSW 22:48:26 42° WSW visible
05 May 6.0 21:14:35 10° W 21:19:12 87° S 21:22:20 20° E visible
05 May 7.6 22:56:37 10° W 22:59:03 28° WSW 22:59:03 28° WSW visible
06 May 6.0 21:25:54 10° W 21:30:30 75° SSW 21:32:54 27° ESE visible
06 May 8.2 23:08:08 10° W 23:09:37 18° WSW 23:09:37 18° WSW visible
07 May 6.2 21:37:15 10° W 21:41:45 57° SSW 21:43:30 34° SE visible
07 May 8.7 23:19:58 10° WSW 23:20:12 11° WSW 23:20:12 11° WSW visible
08 May 6.7 21:48:39 10° W 21:52:57 40° SSW 21:54:05 34° S visible
